DateTimeUTC,F1_A11,F1_S11,BsB_S11,BsG_S11,BsR_S11,BbsB_S11,BbsG_S11,BbsR_S11,BaB_A11,BaG_A11,BaR_A11,Tu_S11,T_S11,Uu_S11,U_S11,P_S11,T1_A11
2021-01-04T17:00:00Z,00000200,21000000,,,,,,,-000.17,0000.23,0000.07,15.8,23.1,,00.0,0636.7,30.7
2021-01-04T17:01:00Z,00000200,21000000,,,,,,,-000.03,0000.07,-000.32,15.8,23.1,,00.0,0636.7,30.7
2021-01-04T17:02:00Z,00000200,21000000,,,,,,,-000.31,-000.42,-000.03,15.8,23.1,,00.0,0636.7,30.7
2021-01-04T17:03:00Z,00000200,61000000,,,,,,,-000.14,-000.29,-000.27,15.9,23.2,,00.0,0636.7,30.7
2021-01-04T17:04:00Z,00000200,41000000,-000.11,-000.30,0000.40,0000.15,0000.20,0000.14,0000.38,-000.03,0000.21,16.0,22.9,,00.0,0637.6,30.6
2021-01-04T17:05:00Z,00000200,01000000,-000.42,-000.15,0000.35,0000.12,0000.07,0000.12,-000.45,-000.01,-000.10,16.0,22.9,,00.0,0637.7,30.6
2021-01-04T17:06:00Z,00000200,01000000,0000.56,0000.15,0000.05,0000.67,0000.14,0000.06,0000.06,0000.11,-000.11,16.0,22.8,,00.0,0637.6,30.6
2021-01-04T17:07:00Z,00000200,01000000,-000.16,0000.14,0000.14,0000.34,0000.16,0000.09,-000.04,-000.58,-000.12,15.9,22.8,,00.0,0637.6,30.6
2021-01-04T17:08:00Z,00000200,01000000,-000.07,0000.03,0000.25,0000.48,0000.19,0000.13,-000.04,0000.24,0000.11,15.9,22.7,,00.0,0637.7,30.6
2021-01-04T17:09:00Z,00000200,01000000,0000.16,0000.31,0000.16,0000.00,0000.19,0000.05,0000.45,0000.53,-000.14,15.8,22.7,,00.0,0637.7,30.6
2021-01-04T17:10:00Z,00000200,01000000,0000.11,0000.35,0000.25,0000.42,0000.07,-000.08,-000.16,-000.05,0000.21,15.8,22.7,,00.0,0637.7,30.6
2021-01-04T17:11:00Z,00000200,01000000,-000.46,0000.12,0000.32,0000.44,0000.04,-000.19,-000.06,-000.09,-000.02,15.8,22.7,,00.0,0637.8,30.6
2021-01-04T17:12:00Z,00000200,01000000,-000.09,0000.24,0000.26,0000.01,0000.04,0000.28,0000.16,0000.37,0000.07,15.9,22.7,,00.0,0637.8,30.6
2021-01-04T17:13:00Z,00000200,01000000,-000.36,0000.00,-000.09,0000.03,0000.08,-000.12,0000.08,-000.17,0000.03,16.0,22.7,,00.0,0637.8,30.6
2021-01-04T17:14:00Z,00000200,01000000,-000.78,-000.08,0000.51,0000.33,-000.02,0000.00,0000.11,-000.04,0000.05,16.1,22.8,,00.0,0637.9,30.7
2021-01-04T17:15:00Z,00000200,01000000,-000.25,0000.10,0000.43,-000.04,0000.18,0000.05,0000.17,0000.50,-000.03,16.2,22.8,,00.0,0637.9,30.7
2021-01-04T17:16:00Z,00000200,01000000,0000.22,0000.29,0000.03,0000.26,0000.19,-000.11,0000.08,-000.31,-000.01,16.2,22.9,,00.0,0637.9,30.7
2021-01-04T17:17:00Z,00000200,01000000,0000.05,0000.16,0000.27,0000.32,0000.41,-000.12,-000.39,-000.06,-000.11,16.2,22.9,,00.0,0637.9,30.7
2021-01-04T17:18:00Z,00000200,01000000,-001.03,0000.05,0000.28,-000.16,0000.17,0000.01,-000.26,-000.29,-000.04,16.2,22.9,,00.0,0638.0,30.7
2021-01-04T17:19:00Z,00000200,01000000,-000.09,0000.22,0000.35,-000.26,0000.15,-000.05,0000.15,-000.19,-000.26,16.1,22.8,,00.0,0638.0,30.6
2021-01-04T17:20:00Z,00000200,01000000,0000.27,0000.33,0000.29,-000.19,0000.06,0000.03,-000.23,0000.01,-000.03,16.0,22.8,,00.0,0638.0,30.6
2021-01-04T17:21:00Z,00000200,01000000,-000.18,-000.09,0000.34,-000.20,0000.11,0000.25,-000.24,-000.14,0000.14,16.0,22.7,,00.0,0638.0,30.6
2021-01-04T17:22:00Z,00000200,01000000,0000.14,0000.30,0000.31,0000.08,0000.06,-000.07,0000.14,-000.13,-000.20,15.9,22.7,,00.0,0638.0,30.6
2021-01-04T17:23:00Z,00000200,01000000,0000.07,0000.34,0000.23,-000.10,0000.07,-000.02,-000.03,0000.05,0000.08,15.9,22.7,,00.0,0638.1,30.6
2021-01-04T17:24:00Z,00000200,01000000,0000.53,0000.19,0000.09,0000.18,0000.00,-000.10,0000.39,0000.49,-000.18,15.8,22.7,,00.0,0638.1,30.6
2021-01-04T17:25:00Z,00000200,01000000,0000.49,0000.33,0000.27,0000.60,0000.05,-000.13,-000.01,-000.29,-000.03,15.8,22.6,,00.0,0638.1,30.6
2021-01-04T17:26:00Z,00000200,01000000,-000.16,-000.03,0000.34,0000.08,0000.00,0000.17,0000.15,0000.14,0000.17,15.8,22.6,,00.0,0638.1,30.6
2021-01-04T17:27:00Z,00000200,01000000,-000.20,0000.16,0000.06,0000.05,0000.19,0000.07,-000.14,-000.07,-000.05,15.9,22.6,,00.0,0638.1,30.6
2021-01-04T17:28:00Z,00000200,01000000,-000.34,0000.14,0000.31,0000.48,0000.04,-000.00,0000.28,0000.25,0000.43,16.0,22.7,,00.0,0638.1,30.6
2021-01-04T17:29:00Z,00000200,01000000,-000.78,0000.22,0000.01,-000.13,0000.06,-000.18,-000.35,-000.05,-000.12,16.1,22.7,,00.0,0638.2,30.7
2021-01-04T17:30:00Z,00000200,01000000,0000.32,0000.23,0000.16,-000.24,0000.33,0000.01,0000.20,0000.00,-000.15,16.1,22.8,,00.0,0638.2,30.7
2021-01-04T17:31:00Z,00000200,01000000,0000.02,0000.24,0000.26,0000.26,-000.13,0000.06,-000.04,-000.11,-000.15,16.2,22.8,,00.0,0638.2,30.7
2021-01-04T17:32:00Z,00000200,01000000,0000.64,0000.19,0000.07,-000.11,0000.02,-000.11,-000.30,-000.52,-000.30,16.1,22.8,,00.0,0638.2,30.7
2021-01-04T17:33:00Z,00000200,01000000,-000.29,0000.10,0000.38,-000.10,0000.39,0000.22,-000.14,0000.53,0000.23,16.1,22.8,,00.0,0638.2,30.6
2021-01-04T17:34:00Z,00000200,01000000,-000.47,0000.17,0000.31,0000.09,0000.02,0000.09,0000.09,-000.37,-000.31,16.0,22.7,,00.0,0638.2,30.6
2021-01-04T17:35:00Z,00000200,01000000,-000.23,0000.06,0000.34,-000.05,0000.20,0000.19,-000.33,0000.35,-000.08,15.9,22.7,,00.0,0638.2,30.6
2021-01-04T17:36:00Z,00000200,01000000,0000.25,0000.40,0000.29,0000.29,0000.08,0000.02,0000.24,-000.51,0000.07,15.9,22.7,,00.0,0638.2,30.6
2021-01-04T17:37:00Z,00000200,01000000,-000.23,0000.39,0000.25,0000.67,-000.03,-000.02,0000.05,-000.04,-000.08,15.8,22.6,,00.0,0638.2,30.6
2021-01-04T17:38:00Z,00000200,01000000,-000.22,0000.03,0000.36,0000.13,0000.17,0000.06,-000.04,-000.02,-000.17,15.8,22.6,,00.0,0638.2,30.6
2021-01-04T17:39:00Z,00000200,01000000,-000.69,0000.02,0000.13,0000.06,0000.02,-000.05,0000.39,0000.22,0000.08,15.7,22.6,,00.0,0638.2,30.6
2021-01-04T17:40:00Z,00000200,01000000,0000.01,-000.10,0000.25,0000.48,0000.20,0000.13,0000.07,0000.31,0000.18,15.7,22.5,,00.0,0638.2,30.5
2021-01-04T17:41:00Z,00000200,01000000,0000.30,0000.20,0000.03,0000.06,0000.04,0000.12,-000.19,-000.16,0000.27,15.7,22.5,,00.0,0638.2,30.6
2021-01-04T17:42:00Z,00000200,01000000,0000.51,0000.07,0000.11,0000.28,0000.03,0000.01,0000.07,-000.03,-000.14,15.8,22.6,,00.0,0638.2,30.6
2021-01-04T17:43:00Z,00000200,01000000,-000.11,0000.22,0000.20,0000.48,0000.21,-000.06,0000.26,0000.13,0000.12,15.9,22.6,,00.0,0638.3,30.6
2021-01-04T17:44:00Z,00000200,01000000,0000.40,0000.18,-000.04,0000.32,-000.09,-000.04,-000.07,0000.32,0000.15,16.0,22.7,,00.0,0638.3,30.7
2021-01-04T17:45:00Z,00000200,01000000,-000.32,0000.29,0000.08,-000.02,0000.14,0000.05,-000.07,-000.08,-000.28,16.1,22.7,,00.0,0638.3,30.7
2021-01-04T17:46:00Z,00000200,01000000,-000.07,0000.06,0000.36,-000.43,0000.05,0000.12,0000.11,0000.30,0000.30,16.1,22.7,,00.0,0638.3,30.7
2021-01-04T17:47:00Z,00000200,01000000,0000.18,-000.10,0000.02,-000.11,-000.06,0000.18,-000.01,-000.54,-000.19,16.2,22.8,,00.0,0638.3,30.7
2021-01-04T17:48:00Z,00000200,01000000,-000.07,0000.21,-000.06,-000.21,0000.11,-000.19,-000.29,-000.09,-000.15,16.2,22.8,,00.0,0638.3,30.7
2021-01-04T17:49:00Z,00000200,01000000,-000.14,0000.04,0000.22,0000.05,0000.09,-000.01,0000.09,-000.15,0000.07,16.1,22.8,,00.0,0638.3,30.6
2021-01-04T17:50:00Z,00000200,01000000,0000.08,0000.19,-000.02,0000.02,0000.11,0000.28,-000.18,-000.10,-000.22,16.1,22.7,,00.0,0638.3,30.6
2021-01-04T17:51:00Z,00000200,01000000,0000.18,0000.12,0000.18,0000.22,-000.12,-000.08,-000.12,0000.08,-000.24,16.0,22.7,,00.0,0638.3,30.6
2021-01-04T17:52:00Z,00000200,01000000,0000.16,0000.19,0000.37,-000.07,0000.15,-000.13,-000.13,-000.04,-000.11,15.9,22.7,,00.0,0638.3,30.6
2021-01-04T17:53:00Z,00000200,01000000,-000.69,0000.16,0000.00,0000.32,-000.04,-000.01,0000.42,-000.05,0000.22,15.9,22.6,,00.0,0638.3,30.6
2021-01-04T17:54:00Z,00000200,01000000,-000.48,0000.29,0000.24,0000.09,-000.06,0000.02,0000.16,0000.27,0000.35,15.8,22.6,,00.0,0638.3,30.6
2021-01-04T17:55:00Z,00000200,01000000,-000.38,0000.09,0000.25,0000.28,0000.28,0000.11,-000.04,0000.03,0000.07,15.8,22.6,,00.0,0638.3,30.6
2021-01-04T17:56:00Z,00000200,01000000,-000.38,0000.05,0000.28,0000.11,0000.17,-000.03,0000.20,0000.08,-000.06,15.8,22.6,,00.0,0638.4,30.6
2021-01-04T17:57:00Z,00000200,41000000,,,,,,,0001.06,0000.92,0001.06,15.9,22.6,,00.0,0638.3,30.6
2021-01-04T17:58:00Z,00000200,61000000,,,,,,,-000.44,-000.03,-000.52,15.6,22.8,,00.0,0637.5,30.6
2021-01-04T17:59:00Z,00000200,21000000,,,,,,,-000.24,-000.07,-000.23,15.6,22.9,,00.0,0637.5,30.7
